Dothan, AL

10:02 PM CDT on October 17, 2017 (GMT -0500)
Dothan Regional

Weather History for KDHN - March, 2013

Change the Weather History Date:

Sunday, March 31, 2013

  Actual Average Record
Temperature  
Mean Temperature 67 °F 62 °F  
Max Temperature 79 °F 74 °F 87 °F (1954)
Min Temperature 54 °F 49 °F 32 °F (1964)
Degree Days  
Heating Degree Days 0 5  
Month to date heating degree days 341 212  
Since 1 July heating degree days 1548 1770  
Cooling Degree Days 2 1  
Month to date cooling degree days 6 21  
Year to date cooling degree days 44 31  
Growing Degree Days 17 (Base 50)    
Moisture  
Dew Point 57 °F    
Average Humidity 73    
Maximum Humidity 93    
Minimum Humidity 48    
Precipitation  
Precipitation 0.01 in 0.24 in 3.88 in (1962)
Month to date precipitation 0.67 5.88  
Year to date precipitation 8.00 15.28  
Sea Level Pressure  
Sea Level Pressure 30.03 in    
Wind  
Wind Speed 9 mph (SW)    
Max Wind Speed 21 mph    
Max Gust Speed 29 mph    
Visibility 10 miles    
Events Rain    
T = Trace of Precipitation, MM = Missing Value Source: NWS Daily Summary

Daily Weather History Graph

Daily Weather History Graph

Search for Another Location

Airport or City:

Trip Planner

Search our weather history database for the weather conditions in past years. The results will help you decide how hot, cold, wet, or windy it might be!

Date:

Astronomy

Mar. 31, 2013 Rise Set
Actual Time 6:31 AM CDT 7:00 PM CDT
Civil Twilight 6:07 AM CDT 7:25 PM CDT
Nautical Twilight 5:38 AM CDT 7:53 PM CDT
Astronomical Twilight 5:09 AM CDT 8:22 PM CDT
Moon 11:52 PM CDT (3/31) 9:34 AM CDT (3/31)
Length of Visible Light 13h 18m
Length of Day
12h 29m
Waning Gibbous, 77% of the Moon is Illuminated
Mar 31
Waning Gibbous
Apr 2
Last Quarter
Apr 10
New
Apr 18
First Quarter
Apr 25
Full

Hourly Weather History & Observations

Time (CDT) Temp. Dew Point Humidity Pressure Visibility Wind Dir Wind Speed Gust Speed Precip Events Conditions
12:53 AM 60.1 °F 48.0 °F 64% 30.10 in 10.0 mi South 10.4 mph - N/A   Partly Cloudy
1:53 AM 59.0 °F 50.0 °F 72% 30.09 in 10.0 mi South 6.9 mph - N/A   Mostly Cloudy
2:53 AM 59.0 °F 52.0 °F 78% 30.07 in 10.0 mi South 8.1 mph - N/A   Partly Cloudy
3:53 AM 57.9 °F 53.1 °F 84% 30.06 in 10.0 mi SSW 6.9 mph - N/A   Mostly Cloudy
4:53 AM 55.9 °F 53.1 °F 90% 30.06 in 10.0 mi SSW 6.9 mph - N/A   Partly Cloudy
5:53 AM 55.0 °F 53.1 °F 93% 30.07 in 10.0 mi South 4.6 mph - N/A   Clear
6:53 AM 55.0 °F 53.1 °F 93% 30.07 in 8.0 mi South 5.8 mph - N/A   Clear
7:53 AM 60.1 °F 57.0 °F 90% 30.08 in 10.0 mi SSW 5.8 mph - N/A   Clear
8:53 AM 66.0 °F 59.0 °F 78% 30.09 in 10.0 mi SSW 8.1 mph - N/A   Scattered Clouds
9:09 AM 66.2 °F 59.0 °F 78% 30.10 in 10.0 mi SW 8.1 mph - N/A   Mostly Cloudy
9:27 AM 68.0 °F 59.0 °F 73% 30.09 in 10.0 mi SW 8.1 mph - N/A   Scattered Clouds
9:53 AM 69.1 °F 59.0 °F 70% 30.08 in 10.0 mi WSW 8.1 mph - N/A   Scattered Clouds
10:20 AM 69.8 °F 60.8 °F 73% 30.08 in 10.0 mi West 8.1 mph - N/A   Overcast
10:53 AM 73.0 °F 60.1 °F 64% 30.07 in 10.0 mi West 9.2 mph - N/A   Overcast
11:16 AM 73.4 °F 57.2 °F 57% 30.07 in 10.0 mi West 9.2 mph - N/A   Mostly Cloudy
11:53 AM 73.9 °F 57.0 °F 55% 30.04 in 10.0 mi SW 9.2 mph - N/A   Mostly Cloudy
12:53 PM 75.0 °F 57.9 °F 55% 30.03 in 10.0 mi WSW 9.2 mph - 0.00 in Rain Light Rain
1:53 PM 77.0 °F 57.9 °F 52% 29.99 in 10.0 mi WSW 10.4 mph - 0.00 in Rain Light Rain
2:53 PM 78.1 °F 59.0 °F 52% 29.97 in 10.0 mi SW 16.1 mph 20.7 mph 0.00 in   Mostly Cloudy
3:53 PM 79.0 °F 57.9 °F 48% 29.95 in 10.0 mi SW 16.1 mph 27.6 mph N/A   Scattered Clouds
4:53 PM 77.0 °F 59.0 °F 54% 29.93 in 10.0 mi South 17.3 mph 24.2 mph N/A   Mostly Cloudy
5:53 PM 73.0 °F 57.9 °F 59% 29.92 in 10.0 mi SSW 20.7 mph 28.8 mph N/A   Partly Cloudy
6:53 PM 70.0 °F 59.0 °F 68% 29.93 in 10.0 mi South 15.0 mph - N/A   Clear
7:53 PM 68.0 °F 60.1 °F 76% 29.96 in 10.0 mi SSW 11.5 mph 23.0 mph N/A   Overcast
8:53 PM 66.9 °F 61.0 °F 81% 29.98 in 10.0 mi SSW 11.5 mph 19.6 mph N/A   Scattered Clouds
9:53 PM 66.0 °F 61.0 °F 84% 29.97 in 10.0 mi SSW 11.5 mph - N/A   Clear
10:38 PM 64.4 °F 60.8 °F 88% 29.98 in 10.0 mi SSW 11.5 mph - N/A   Mostly Cloudy
10:53 PM 64.9 °F 61.0 °F 87% 29.97 in 10.0 mi SW 10.4 mph - 0.00 in Rain Light Rain
11:53 PM 64.0 °F 62.1 °F 93% 29.95 in 10.0 mi SSW 8.1 mph - 0.01 in   Overcast